This demonstration page uses our WeatherBlox Daily Observations layout. Learn more.

Left ArrowRight Arrow

38.20091, -84.87328

Hourly Observations for February 11, 2022

Temp ( °F °C ) Dew Point ( °F °C ) Humidity (%) Winds ( mph kmh ) Pressure ( in mb ) Visibility ( mi km ) Precip ( " mm )
12:53 am 00:53 Clear 29 -1.7 22 -5.6 75 75 Calm 29.92 1013 10 16 0.00 0.00
1:53 am 01:53 Clear 30 -1.1 22 -5.6 72 72 Calm 29.91 1013 10 16 0.00 0.00
2:53 am 02:53 Clear 32 0 23 -5 69 69 S 5 7 29.88 1012 10 16 0.00 0.00
3:53 am 03:53 Clear 35 1.7 24 -4.4 64 64 SSW 6 9 29.86 1011 10 16 0.00 0.00
4:53 am 04:53 Clear 37 2.8 25 -3.9 62 62 S 7 11 29.84 1010 10 16 0.00 0.00
5:53 am 05:53 Clear 37 2.8 24 -4.4 59 59 S 5 7 29.82 1010 10 16 0.00 0.00
6:53 am 06:53 Clear 37 2.8 24 -4.4 59 59 SSW 6 9 29.82 1010 10 16 0.00 0.00
7:53 am 07:53 Sunny 40 4.4 26 -3.3 58 58 SSW 8 13 29.80 1009 10 16 0.00 0.00
8:53 am 08:53 Sunny 44 6.7 28 -2.2 53 53 SSW 9 15 29.81 1010 10 16 0.00 0.00
9:53 am 09:53 Sunny 52 11.1 30 -1.1 43 43 SW 16 26 29.80 1009 10 16 0.00 0.00
10:53 am 10:53 Sunny 56 13.3 30 -1.1 37 37 SW 20 31 29.79 1009 10 16 0.00 0.00
11:53 am 11:53 Mostly Sunny 58 14.4 30 -1.1 35 35 SW 17 28 29.78 1009 10 16 0.00 0.00
12:53 pm 12:53 Cloudy 61 16.1 32 0 34 34 SW 24 39 29.76 1008 10 16 0.00 0.00
1:53 pm 13:53 Cloudy 62 16.7 31 -0.6 31 31 SW 26 43 29.74 1007 10 16 0.00 0.00
2:53 pm 14:53 Cloudy 62 16.7 32 0 32 32 SW 16 26 29.73 1007 10 16 0.00 0.00
3:53 pm 15:53 Cloudy 63 17.2 30 -1.1 29 29 SW 26 43 29.73 1007 10 16 0.00 0.00
4:53 pm 16:53 Cloudy 62 16.7 30 -1.1 30 30 WSW 8 13 29.76 1008 10 16 0.00 0.00
5:53 pm 17:53 Cloudy 62 16.7 30 -1.1 30 30 WSW 20 31 29.78 1008 10 16 0.00 0.00
6:53 pm 18:53 Cloudy 59 15 33 0.6 38 38 WNW 9 15 29.83 1010 10 16 0.00 0.00
7:53 pm 19:53 Cloudy 54 12.2 33 0.6 45 45 WNW 8 13 29.85 1011 10 16 0.00 0.00
8:53 pm 20:53 Cloudy 50 10 37 2.8 61 61 WNW 8 13 29.89 1012 10 16 0.00 0.00
9:53 pm 21:53 Cloudy 49 9.4 38 3.3 66 66 W 9 15 29.92 1013 10 16 0.00 0.00
10:53 pm 22:53 Cloudy 47 8.3 38 3.3 71 71 WNW 7 11 29.94 1014 10 16 0.00 0.00
11:53 pm 23:53 Cloudy 46 7.8 38 3.3 73 73 VRB 5 7 29.95 1014 10 16 0.00 0.00

Powered by AerisWeather